FW5262 Weather Reports


time (UTC)temp
F
wind
direction
speed
knots
gust
knots
rain 1hr
in
rain 24hr
in
rain mn
in
humidity
%
barometer
mb
20260510011829 83 175 3.5 7.0 0.00 0.00 0.00 42 938.6
20260510011056 84 171 3.5 7.0 0.00 0.00 0.00 42 938.6
20260510010556 85 167 3.5 6.1 0.00 0.00 0.00 41 938.6
20260510010056 86 144 3.5 6.1 0.00 0.00 0.00 40 938.6
20260510005558 86 184 3.5 6.1 0.00 0.00 0.00 39 938.6
20260510005056 87 178 3.5 6.1 0.00 0.00 0.00 38 938.6
20260510004556 87 179 3.5 6.1 0.00 0.00 0.00 38 938.6
20260510004102 88 178 4.3 8.7 0.00 0.00 0.00 37 938.5
20260510004058 87 169 3.5 8.7 0.00 0.00 0.00 37 938.6
20260510003058 88 173 4.3 7.0 0.00 0.00 0.00 36 938.5
20260510002557 89 183 4.3 8.7 0.00 0.00 0.00 35 938.6
20260510002329 89 188 4.3 8.7 0.00 0.00 0.00 35 938.6
20260510001828 89 186 4.3 9.6 0.00 0.00 0.00 34 938.6
20260510001056 89 201 4.3 9.6 0.00 0.00 0.00 34 938.6
20260510000600 89 200 5.2 9.6 0.00 0.00 0.00 35 938.6
20260510000059 89 180 6.1 9.6 0.00 0.00 0.00 34 938.6
20260509235558 89 161 5.2 9.6 0.00 0.00 0.00 35 938.6
20260509235100 89 205 5.2 10.4 0.00 0.00 0.00 34 938.6
20260509234558 90 203 6.1 10.4 0.00 0.00 0.00 33 938.6
20260509234054 90 190 5.2 9.6 0.00 0.00 0.00 33 938.6
20260509233552 90 196 5.2 9.6 0.00 0.00 0.00 32 938.6
20260509233324 90 204 4.3 9.6 0.00 0.00 0.00 32 938.7
20260509232553 91 262 4.3 9.6 0.00 0.00 0.00 35 938.6
20260509232052 90 157 4.3 8.7 0.00 0.00 0.00 37 938.7
20260509231552 90 185 3.5 9.6 0.00 0.00 0.00 34 938.7
20260509231052 91 242 4.3 9.6 0.00 0.00 0.00 34 938.7
20260509230553 91 228 5.2 11.3 0.00 0.00 0.00 35 938.7
20260509230106 91 193 5.2 8.7 0.00 0.00 0.00 33 938.7
20260509230053 91 189 5.2 11.3 0.00 0.00 0.00 34 938.8
20260509225326 91 186 4.3 8.7 0.00 0.00 0.00 33 938.7
20260509224551 91 175 4.3 9.6 0.00 0.00 0.00 35 938.8
20260509224049 91 226 4.3 9.6 0.00 0.00 0.00 34 938.7
20260509223548 91 198 4.3 9.6 0.00 0.00 0.00 35 938.6
20260509223043 91 202 5.2 11.3 0.00 0.00 0.00 32 938.7
20260509222536 91 194 5.2 11.3 0.00 0.00 0.00 34 938.7
20260509222301 91 212 5.2 10.4 0.00 0.00 0.00 35 938.7
20260509221525 91 202 6.1 13.0 0.00 0.00 0.00 36 938.7
20260509221019 91 198 6.1 13.0 0.00 0.00 0.00 37 938.7
20260509220512 91 213 6.1 11.3 0.00 0.00 0.00 33 938.7
20260509220007 91 136 5.2 11.3 0.00 0.00 0.00 36 938.7
20260509215501 91 150 6.1 11.3 0.00 0.00 0.00 38 938.7
20260509214954 91 158 6.1 12.2 0.00 0.00 0.00 35 938.8
20260509214720 91 143 6.1 12.2 0.00 0.00 0.00 36 938.8
20260509213942 91 117 6.1 12.2 0.00 0.00 0.00 37 938.8
20260509213436 91 171 6.1 12.2 0.00 0.00 0.00 37 938.9
20260509212931 91 206 5.2 10.4 0.00 0.00 0.00 38 938.9
20260509212425 91 185 5.2 11.3 0.00 0.00 0.00 37 938.9
20260509211919 91 214 6.1 12.2 0.00 0.00 0.00 37 939.1
20260509211413 91 205 5.2 12.2 0.00 0.00 0.00 40 939.2
20260509211139 91 201 5.2 7.8 0.00 0.00 0.00 41 939.2
20260509210401 91 194 4.3 12.2 0.00 0.00 0.00 36 939.3
20260509210125 91 221 5.2 11.3 0.00 0.00 0.00 37 939.5
20260509205619 91 202 6.1 12.2 0.00 0.00 0.00 37 939.5
20260509204843 91 169 5.2 11.3 0.00 0.00 0.00 39 939.6
20260509204838 91 194 5.2 11.3 0.00 0.00 0.00 40 939.7
20260509203831 91 204 4.3 10.4 0.00 0.00 0.00 42 939.7
20260509203324 90 180 6.1 11.3 0.00 0.00 0.00 38 939.8
20260509202819 90 134 7.0 12.2 0.00 0.00 0.00 39 940.0
20260509202312 89 171 5.2 12.2 0.00 0.00 0.00 39 940.0
20260509201807 90 180 4.3 11.3 0.00 0.00 0.00 39 940.0
20260509201301 90 207 6.1 11.3 0.00 0.00 0.00 40 940.1
20260509200754 90 252 6.1 10.4 0.00 0.00 0.00 38 940.2
20260509200249 90 164 5.2 11.3 0.00 0.00 0.00 37 940.2
20260509195742 90 130 5.2 11.3 0.00 0.00 0.00 41 940.2
20260509195237 89 108 4.3 11.3 0.00 0.00 0.00 40 940.3
20260509194731 89 205 3.5 9.6 0.00 0.00 0.00 43 940.4
20260509194225 89 244 3.5 8.7 0.00 0.00 0.00 43 940.5
20260509193718 89 229 4.3 9.6 0.00 0.00 0.00 42 940.6
20260509193443 89 228 4.3 9.6 0.00 0.00 0.00 40 940.7
20260509192706 89 155 4.3 8.7 0.00 0.00 0.00 43 940.7
20260509192257 88 188 5.2 12.2 0.00 0.00 0.00 42 940.8
20260509192200 88 182 6.1 12.2 0.00 0.00 0.00 42 940.7
20260509191949 88 175 5.2 11.3 0.00 0.00 0.00 44 940.8
20260509190643 88 205 5.2 12.2 0.00 0.00 0.00 44 940.8
20260509190136 88 211 5.2 12.2 0.00 0.00 0.00 43 940.9
20260509185901 88 194 4.3 10.4 0.00 0.00 0.00 43 940.9
20260509185125 88 171 4.3 10.4 0.00 0.00 0.00 44 941.0
20260509184619 87 174 5.2 10.4 0.00 0.00 0.00 45 941.1
20260509184343 87 225 4.3 12.2 0.00 0.00 0.00 45 941.0
20260509183607 87 185 4.3 12.2 0.00 0.00 0.00 49 941.2
20260509183101 87 217 4.3 11.3 0.00 0.00 0.00 46 941.2
20260509182554 86 207 4.3 11.3 0.00 0.00 0.00 52 941.3
20260509182049 86 181 5.2 11.3 0.00 0.00 0.00 47 941.4
20260509181543 86 186 6.1 11.3 0.00 0.00 0.00 47 941.5
20260509181036 86 236 4.3 10.4 0.00 0.00 0.00 50 941.5
20260509180531 85 212 4.3 8.7 0.00 0.00 0.00 50 941.6
20260509180025 85 187 5.2 9.6 0.00 0.00 0.00 52 941.7
20260509175526 85 218 6.1 9.6 0.00 0.00 0.00 54 941.7
20260509175306 85 133 4.3 8.7 0.00 0.00 0.00 54 941.7
20260509174526 85 154 4.3 8.7 0.00 0.00 0.00 55 941.8
20260509174026 85 200 5.2 8.7 0.00 0.00 0.00 54 941.9
20260509173527 85 181 5.2 10.4 0.00 0.00 0.00 55 941.9
20260509173030 84 167 4.3 10.4 0.00 0.00 0.00 53 942.0
20260509172533 84 178 4.3 10.4 0.00 0.00 0.00 57 942.2
20260509172528 84 199 3.5 7.8 0.00 0.00 0.00 58 942.1
20260509171524 83 228 4.3 10.4 0.00 0.00 0.00 57 942.2
20260509171022 83 117 5.2 10.4 0.00 0.00 0.00 56 942.3
20260509170522 83 121 4.3 10.4 0.00 0.00 0.00 57 942.2
20260509170021 83 156 3.5 8.7 0.00 0.00 0.00 60 942.3
20260509165523 82 206 5.2 9.6 0.00 0.00 0.00 61 942.3
20260509165024 82 192 6.1 10.4 0.00 0.00 0.00 59 942.4
20260509164518 82 202 5.2 10.4 0.00 0.00 0.00 60 942.5
20260509164018 81 183 5.2 11.3 0.00 0.00 0.00 62 942.5
20260509163517 81 191 5.2 11.3 0.00 0.00 0.00 62 942.5
20260509163019 81 184 4.3 9.6 0.00 0.00 0.00 62 942.5
20260509162519 81 247 4.3 7.8 0.00 0.00 0.00 63 942.5
20260509162017 80 200 4.3 9.6 0.00 0.00 0.00 65 942.4
20260509161518 80 221 5.2 11.3 0.00 0.00 0.00 64 942.4
20260509161019 80 205 5.2 11.3 0.00 0.00 0.00 64 942.3
20260509160519 80 260 5.2 11.3 0.00 0.00 0.00 68 942.3
20260509160014 79 237 5.2 11.3 0.00 0.00 0.00 68 942.3
20260509155514 79 217 5.2 11.3 0.00 0.00 0.00 67 942.4
20260509155015 79 258 5.2 11.3 0.00 0.00 0.00 70 942.4
20260509154514 78 190 6.1 11.3 0.00 0.00 0.00 70 942.4
20260509154012 78 199 5.2 13.0 0.00 0.00 0.00 70 942.5
20260509153512 78 254 5.2 13.0 0.00 0.00 0.00 72 942.4
20260509153013 78 186 4.3 10.4 0.00 0.00 0.00 73 942.4
20260509152513 77 228 5.2 11.3 0.00 0.00 0.00 74 942.4
20260509152012 77 198 6.1 12.2 0.00 0.00 0.00 74 942.4
20260509151505 76 236 6.1 12.2 0.00 0.00 0.00 74 942.4
20260509151231 76 269 7.0 13.9 0.00 0.00 0.00 74 942.4
20260509150453 76 235 7.0 13.9 0.00 0.00 0.00 76 942.4
20260509145948 75 198 5.2 10.4 0.00 0.00 0.00 77 942.4
20260509145714 74 241 4.3 10.4 0.00 0.00 0.00 80 942.4
20260509144935 74 198 3.5 8.7 0.00 0.00 0.00 81 942.5
20260509144701 73 225 4.3 9.6 0.00 0.00 0.00 82 942.5
20260509143923 72 231 4.3 9.6 0.00 0.00 0.00 84 942.7
20260509143418 72 257 4.3 9.6 0.00 0.00 0.00 84 942.7
20260509143138 71 207 4.3 7.8 0.00 0.00 0.00 86 942.8
20260509143012 71 248 3.5 9.6 0.00 0.00 0.00 85 942.7
20260509142130 70 198 5.2 8.7 0.00 0.00 0.00 86 942.9
20260509141354 70 182 4.3 8.7 0.00 0.00 0.00 86 942.9
20260509140847 70 160 3.5 7.8 0.00 0.00 0.00 87 942.9
20260509140342 69 248 3.5 7.8 0.00 0.00 0.00 89 942.9
20260509135836 69 267 3.5 8.7 0.00 0.00 0.00 89 942.9
20260509135330 68 230 3.5 8.7 0.00 0.00 0.00 91 943.0
20260509134824 68 242 3.5 7.0 0.00 0.00 0.00 92 942.9
20260509134318 67 246 2.6 7.0 0.00 0.00 0.00 93 942.8
20260509133812 67 235 2.6 6.1 0.00 0.00 0.00 94 942.8
20260509133306 66 234 3.5 8.7 0.00 0.00 0.00 94 942.8
20260509132759 66 215 3.5 8.7 0.00 0.00 0.00 94 942.8
20260509132254 66 257 2.6 7.0 0.00 0.00 0.00 95 942.9
20260509131747 66 218 1.7 3.5 0.00 0.00 0.00 96 942.7
20260509131242 65 225 0.9 3.5 0.00 0.00 0.00 96 942.7
20260509130736 65 244 0.9 2.6 0.00 0.00 0.00 95 942.6
20260509130230 64 244 0.9 1.7 0.00 0.00 0.00 95 942.6
20260509125723 64 244 0.9 2.6 0.00 0.00 0.00 95 942.4
20260509125218 64 208 0.9 2.6 0.00 0.00 0.00 96 942.4
20260509124942 64 212 1.7 3.5 0.00 0.00 0.00 95 942.3
20260509124206 63 225 1.7 4.3 0.00 0.00 0.00 95 942.3
20260509123659 62 244 1.7 4.3 0.00 0.00 0.00 95 942.3
20260509123420 60 207 1.7 3.5 0.00 0.00 0.00 95 942.3
20260509123255 61 188 1.7 2.6 0.00 0.00 0.00 95 942.4
20260509122141 60 201 0.9 3.5 0.00 0.00 0.00 94 942.2
20260509121636 60 283 0.9 1.7 0.00 0.00 0.00 93 942.3
20260509121400 60 283 0.9 2.6 0.00 0.00 0.00 93 942.3
20260509120118 61 271 0.9 1.7 0.00 0.00 0.00 93 942.3
20260509115611 61 271 0.9 2.6 0.00 0.00 0.00 93 942.1
20260509115106 61 283 0.9 2.6 0.00 0.00 0.00 93 942.1
20260509114830 61 237 0.9 2.6 0.00 0.00 0.00 93 942.0
20260509114053 61 173 0.9 2.6 0.00 0.00 0.00 93 941.9
20260509113818 61 134 0.9 2.6 0.00 0.00 0.00 93 941.8
20260509113041 61 134 0.9 2.6 0.00 0.00 0.00 92 941.7
20260509112535 62 154 0.9 1.7 0.00 0.00 0.00 92 941.6
20260509112030 62 154 0.9 2.6 0.00 0.00 0.00 92 941.5
20260509111524 62 154 1.7 3.5 0.00 0.00 0.00 92 941.5
20260509111018 62 132 1.7 3.5 0.00 0.00 0.00 92 941.6
20260509110743 62 108 0.9 2.6 0.00 0.00 0.00 92 941.5
20260509110005 62 122 1.7 3.5 0.00 0.00 0.00 92 941.5
20260509105731 62 121 1.7 3.5 0.00 0.00 0.00 92 941.4
20260509104954 63 130 2.6 5.2 0.00 0.00 0.00 92 941.3
20260509104448 63 131 2.6 5.2 0.00 0.00 0.00 92 941.3
20260509103941 63 130 2.6 6.1 0.00 0.00 0.00 92 941.4
20260509103708 63 112 3.5 6.1 0.00 0.00 0.00 92 941.5
20260509103200 63 96 3.5 7.8 0.00 0.00 0.00 92 941.5
20260509102424 63 92 4.3 7.8 0.00 0.00 0.00 92 941.5
20260509101918 63 114 4.3 7.0 0.00 0.00 0.00 92 941.6
20260509101412 63 142 2.6 7.0 0.00 0.00 0.00 92 941.6
20260509101136 63 118 1.7 5.2 0.00 0.00 0.00 91 941.7
20260509100400 63 122 2.6 4.3 0.00 0.00 0.00 91 941.8
20260509095853 63 146 2.6 4.3 0.00 0.00 0.00 91 941.8
20260509094841 64 162 0.9 2.6 0.00 0.00 0.00 89 941.7
20260509094335 64 155 1.7 2.6 0.00 0.00 0.00 89 941.8
20260509093830 64 150 2.6 6.1 0.00 0.00 0.00 89 941.7
20260509093551 65 96 6.1 8.7 0.00 0.00 0.00 88 941.6
20260509093426 64 106 4.3 8.7 0.00 0.00 0.00 88 941.7
20260509092318 65 94 5.2 9.6 0.00 0.00 0.00 88 941.7
20260509092054 65 100 6.1 9.6 0.00 0.00 0.00 87 941.6
20260509091319 65 125 5.2 9.6 0.00 0.00 0.00 87 941.5
20260509090820 65 138 6.1 11.3 0.00 0.00 0.00 86 941.6
20260509090318 65 113 6.1 11.3 0.00 0.00 0.00 86 941.7
20260509085825 66 106 6.1 11.3 0.00 0.00 0.00 85 941.7
20260509085552 66 117 6.1 10.4 0.00 0.00 0.00 85 941.8
20260509084818 66 146 5.2 10.4 0.00 0.00 0.00 85 942.0
20260509084319 67 90 7.0 10.4 0.00 0.00 0.00 85 942.0
20260509083820 67 119 7.8 13.0 0.00 0.00 0.00 85 942.1
20260509083550 67 105 7.8 13.0 0.00 0.00 0.00 85 942.3
20260509082819 67 90 8.7 13.0 0.00 0.00 0.00 86 942.3
20260509082319 67 101 8.7 13.0 0.00 0.00 0.00 86 942.5
20260509081816 68 74 8.7 14.8 0.00 0.00 0.00 87 942.6
20260509081314 68 76 7.8 14.8 0.00 0.00 0.00 87 942.5
20260509080814 68 97 7.0 13.0 0.00 0.00 0.00 90 942.7
20260509080316 68 67 6.1 11.3 0.00 0.00 0.00 92 942.7
20260509075814 68 67 5.2 9.6 0.00 0.00 0.00 92 942.8
20260509075314 68 59 5.2 9.6 0.00 0.00 0.00 93 942.4
20260509074815 68 90 5.2 9.6 0.00 0.00 0.00 93 942.5
20260509074314 68 112 6.1 12.2 0.00 0.00 0.00 93 942.5
20260509073815 68 69 6.1 12.2 0.00 0.00 0.00 93 942.5
20260509073316 68 69 6.1 13.9 0.00 0.00 0.00 93 942.5
20260509073046 68 25 6.1 13.9 0.00 0.00 0.00 94 942.8
20260509072314 68 90 7.0 12.2 0.00 0.00 0.00 94 942.9
20260509071816 68 57 7.0 12.2 0.00 0.00 0.00 95 942.9
20260509071314 67 355 7.0 11.3 0.00 0.00 0.00 95 943.1
20260509070814 66 49 4.3 10.4 0.00 0.00 0.00 94 942.8
20260509070546 65 39 2.6 7.8 0.00 0.00 0.00 93 942.7
20260509065814 66 31 1.7 3.5 0.00 0.00 0.00 92 942.1
20260509065316 66 90 1.7 3.5 0.00 0.00 0.00 93 941.8
20260509064809 66 98 1.7 3.5 0.00 0.00 0.00 92 941.6
20260509064535 66 98 0.9 3.5 0.00 0.00 0.00 92 941.5
20260509064027 67 72 0.9 1.7 0.00 0.00 0.00 92 941.6
20260509063522 67 72 0.9 1.7 0.00 0.00 0.00 92 941.6
20260509062745 67 72 1.7 3.5 0.00 0.00 0.00 92 941.4
20260509062238 67 331 2.6 6.1 0.00 0.00 0.00 92 941.6
20260509062003 67 350 2.6 6.1 0.00 0.00 0.00 92 941.8
20260509061227 67 130 3.5 13.0 0.00 0.00 0.00 93 941.4
20260509060721 67 342 5.2 13.0 0.00 0.00 0.00 93 941.4
20260509060214 67 319 1.7 12.2 0.00 0.00 0.00 91 941.3
20260509055710 67 139 0.9 2.6 0.00 0.00 0.00 91 940.5
20260509055436 68 92 1.7 3.5 0.00 0.00 0.00 91 940.5
20260509054658 68 121 2.6 5.2 0.00 0.00 0.00 91 940.4
20260509054152 68 119 2.6 5.2 0.00 0.00 0.00 91 940.3
20260509053646 68 134 2.6 3.5 0.00 0.00 0.00 91 940.3
20260509053140 68 147 2.6 6.1 0.00 0.00 0.00 91 940.3
20260509052633 69 119 2.6 6.1 0.00 0.00 0.00 90 940.3
20260509052128 69 153 3.5 7.0 0.00 0.00 0.00 90 940.3
20260509051621 69 127 3.5 7.0 0.00 0.00 0.00 90 940.4
20260509051116 69 115 2.6 6.1 0.00 0.00 0.00 90 940.4
20260509050609 69 132 3.5 7.0 0.00 0.00 0.00 90 940.4
20260509045558 69 111 4.3 7.0 0.00 0.00 0.00 89 940.4
20260509045051 69 126 3.5 7.0 0.00 0.00 0.00 89 940.6
20260509044546 70 135 3.5 7.0 0.00 0.00 0.00 89 940.6
20260509044311 70 161 3.5 7.0 0.00 0.00 0.00 89 940.6
20260509043534 70 146 3.5 7.8 0.00 0.00 0.00 88 940.7
20260509043305 70 178 4.3 8.7 0.00 0.00 0.00 88 940.8
20260509042531 70 128 4.3 9.6 0.00 0.00 0.00 88 940.9
20260509042029 70 124 4.3 9.6 0.00 0.00 0.00 88 940.8
20260509041800 71 115 5.2 10.4 0.00 0.00 0.00 87 940.6
20260509041029 71 148 5.2 10.4 0.00 0.00 0.00 87 940.6
20260509040529 71 117 5.2 10.4 0.00 0.00 0.00 87 940.5
20260509040035 71 143 5.2 8.7 0.00 0.00 0.00 86 940.4
20260509035529 71 186 4.3 12.2 0.00 0.00 0.00 86 940.3
20260509035259 71 134 5.2 12.2 0.00 0.00 0.00 86 940.3
20260509034529 71 145 5.2 10.4 0.00 0.00 0.00 86 940.2
20260509034029 71 144 5.2 10.4 0.00 0.00 0.00 86 940.2
20260509033801 71 133 5.2 9.6 0.00 0.00 0.00 85 940.2
20260509033306 71 131 4.3 8.7 0.00 0.00 0.00 85 940.1
20260509032528 71 138 4.3 8.7 0.00 0.00 0.00 85 940.2
20260509032024 71 147 4.3 8.7 0.00 0.00 0.00 85 940.2
20260509031523 71 133 4.3 8.7 0.00 0.00 0.00 84 940.1
20260509031022 71 136 4.3 7.0 0.00 0.00 0.00 84 940.1
20260509030523 72 152 4.3 7.8 0.00 0.00 0.00 83 940.1
20260509030018 72 151 3.5 7.8 0.00 0.00 0.00 83 940.0
20260509025511 72 141 3.5 7.0 0.00 0.00 0.00 83 940.0
20260509025237 72 155 4.3 7.8 0.00 0.00 0.00 82 939.9
20260509024459 72 150 4.3 8.7 0.00 0.00 0.00 82 939.8
20260509023954 72 166 4.3 8.7 0.00 0.00 0.00 82 939.8
20260509023448 72 142 3.5 7.8 0.00 0.00 0.00 81 939.8
20260509022941 73 128 2.6 6.1 0.00 0.00 0.00 81 939.8
20260509022436 73 143 2.6 6.1 0.00 0.00 0.00 80 939.8
20260509021930 73 157 2.6 5.2 0.00 0.00 0.00 80 939.7
20260509021424 73 142 2.6 5.2 0.00 0.00 0.00 79 939.6
20260509020917 73 144 1.7 4.3 0.00 0.00 0.00 79 939.5
20260509020412 74 169 1.7 4.3 0.00 0.00 0.00 78 939.4
20260509015905 74 145 2.6 5.2 0.00 0.00 0.00 78 939.3
20260509015400 74 145 2.6 5.2 0.00 0.00 0.00 77 939.3
20260509014854 74 146 2.6 4.3 0.00 0.00 0.00 76 939.3
20260509014348 75 149 2.6 5.2 0.00 0.00 0.00 76 939.3
20260509013842 75 177 2.6 5.2 0.00 0.00 0.00 75 939.2
20260509013336 75 158 3.5 6.1 0.00 0.00 0.00 75 939.2
20260509012830 75 169 3.5 6.1 0.00 0.00 0.00 74 939.2
20260509012324 76 146 3.5 6.1 0.00 0.00 0.00 73 939.0